Wetterdaten: Mittwoch, 17.04.2013
Datum Zeit Temperatur Luftfeuchte Regen Wind Richtung Richtung Taupunkt Windchill Windben
17.04.2013 00:03 10,9 C 76 % 0,0 l/m 3,4 km/h (1 Bft) N 360 6,8 C 10,9 C 4,8 km/h (1 Bft)
17.04.2013 00:08 10,8 C 77 % 0,0 l/m 4,0 km/h (1 Bft) N-NW 337 6,9 C 10,8 C 6,1 km/h (2 Bft)
17.04.2013 00:13 10,5 C 78 % 0,0 l/m 4,5 km/h (1 Bft) N-NW 337 6,8 C 10,7 C 4,8 km/h (1 Bft)
17.04.2013 00:18 10,3 C 79 % 0,0 l/m 4,2 km/h (1 Bft) W-NW 292 6,8 C 10,5 C 4,8 km/h (1 Bft)
17.04.2013 00:23 10,3 C 79 % 0,0 l/m 4,2 km/h (1 Bft) W-NW 292 6,8 C 10,5 C 4,7 km/h (1 Bft)
17.04.2013 00:28 10,3 C 78 % 0,0 l/m 4,0 km/h (1 Bft) W-NW 292 6,6 C 10,3 C 4,8 km/h (1 Bft)
17.04.2013 00:33 10,3 C 78 % 0,0 l/m 3,7 km/h (1 Bft) NW 315 6,6 C 10,3 C 6,1 km/h (2 Bft)
17.04.2013 00:38 10,4 C 78 % 0,0 l/m 4,2 km/h (1 Bft) N-NW 337 6,7 C 10,4 C 5,3 km/h (1 Bft)
17.04.2013 00:43 10,6 C 78 % 0,0 l/m 4,7 km/h (1 Bft) N-NW 337 6,9 C 10,4 C 6,4 km/h (2 Bft)
17.04.2013 00:48 10,6 C 78 % 0,0 l/m 3,9 km/h (1 Bft) W-NW 292 6,9 C 10,8 C 2,4 km/h (1 Bft)
17.04.2013 00:53 10,6 C 78 % 0,0 l/m 3,4 km/h (1 Bft) N 360 6,9 C 10,8 C 5,6 km/h (1 Bft)
17.04.2013 00:58 10,6 C 78 % 0,0 l/m 2,6 km/h (1 Bft) W-NW 292 6,9 C 10,8 C 2,3 km/h (1 Bft)
17.04.2013 01:03 10,6 C 78 % 0,0 l/m 1,6 km/h (1 Bft) SW 225 6,9 C 10,8 C 0,0 km/h (0 Bft)
17.04.2013 01:08 10,4 C 78 % 0,0 l/m 0,3 km/h (0 Bft) SW 225 6,7 C 10,6 C 0,0 km/h (0 Bft)
17.04.2013 01:13 10,4 C 78 % 0,0 l/m 0,3 km/h (0 Bft) S-SO 157 6,7 C 10,5 C 0,0 km/h (0 Bft)
17.04.2013 01:18 10,1 C 78 % 0,0 l/m 0,5 km/h (0 Bft) N-NW 337 6,4 C 10,3 C 0,0 km/h (0 Bft)
17.04.2013 01:23 10,0 C 77 % 0,0 l/m 0,2 km/h (0 Bft) W-SW 247 6,2 C 10,2 C 0,0 km/h (0 Bft)
17.04.2013 01:28 10,1 C 78 % 0,0 l/m 0,5 km/h (0 Bft) N-NW 337 6,4 C 10,2 C 0,0 km/h (0 Bft)
17.04.2013 01:33 10,2 C 78 % 0,0 l/m 0,5 km/h (0 Bft) S-SW 202 6,5 C 10,2 C 0,0 km/h (0 Bft)
17.04.2013 01:38 10,1 C 78 % 0,0 l/m 0,2 km/h (0 Bft) O-SO 112 6,4 C 10,2 C 0,0 km/h (0 Bft)
17.04.2013 01:43 10,0 C 78 % 0,0 l/m 0,3 km/h (0 Bft) W-SW 247 6,3 C 10,1 C 0,0 km/h (0 Bft)
17.04.2013 01:48 10,1 C 78 % 0,0 l/m 0,3 km/h (0 Bft) S-SO 157 6,4 C 10,2 C 0,0 km/h (0 Bft)
17.04.2013 01:53 10,1 C 78 % 0,0 l/m 0,2 km/h (0 Bft) SW 225 6,4 C 10,2 C 0,0 km/h (0 Bft)
17.04.2013 01:58 10,0 C 78 % 0,0 l/m 0,0 km/h (0 Bft) W-NW 292 6,3 C 10,1 C 0,0 km/h (0 Bft)
17.04.2013 02:03 10,1 C 78 % 0,0 l/m 0,3 km/h (0 Bft) W-NW 292 6,4 C 10,1 C 0,0 km/h (0 Bft)
17.04.2013 02:08 10,0 C 78 % 0,0 l/m 0,3 km/h (0 Bft) W 270 6,3 C 10,1 C 0,0 km/h (0 Bft)
17.04.2013 02:13 10,0 C 78 % 0,0 l/m 0,0 km/h (0 Bft) W-NW 292 6,3 C 10,1 C 0,0 km/h (0 Bft)
17.04.2013 02:18 10,0 C 79 % 0,0 l/m 0,2 km/h (0 Bft) O 90 6,5 C 10,1 C 0,0 km/h (0 Bft)
17.04.2013 02:23 10,2 C 79 % 0,0 l/m 0,2 km/h (0 Bft) S-SO 157 6,7 C 10,2 C 0,0 km/h (0 Bft)
17.04.2013 02:28 10,5 C 79 % 0,0 l/m 0,6 km/h (0 Bft) W-SW 247 7,0 C 10,3 C 0,0 km/h (0 Bft)
17.04.2013 02:33 10,7 C 79 % 0,0 l/m 1,1 km/h (1 Bft) N 360 7,2 C 10,4 C 1,8 km/h (1 Bft)
17.04.2013 02:38 11,3 C 78 % 0,0 l/m 2,3 km/h (1 Bft) N 360 7,6 C 10,8 C 4,0 km/h (1 Bft)
17.04.2013 02:43 11,6 C 76 % 0,0 l/m 2,7 km/h (1 Bft) N-NW 337 7,5 C 11,2 C 4,5 km/h (1 Bft)
17.04.2013 02:48 11,7 C 75 % 0,0 l/m 4,0 km/h (1 Bft) N-NW 337 7,4 C 11,6 C 6,9 km/h (2 Bft)
17.04.2013 02:53 11,6 C 74 % 0,0 l/m 5,1 km/h (1 Bft) N 360 7,1 C 11,7 C 7,2 km/h (2 Bft)
17.04.2013 02:58 11,3 C 76 % 0,0 l/m 5,6 km/h (1 Bft) N-NW 337 7,2 C 11,3 C 6,8 km/h (2 Bft)
17.04.2013 03:03 11,3 C 77 % 0,0 l/m 5,8 km/h (2 Bft) N 360 7,4 C 11,1 C 6,1 km/h (2 Bft)
17.04.2013 03:08 11,4 C 78 % 0,0 l/m 5,3 km/h (1 Bft) N 360 7,7 C 11,5 C 6,1 km/h (2 Bft)
17.04.2013 03:13 11,5 C 78 % 0,0 l/m 4,8 km/h (1 Bft) N 360 7,8 C 11,7 C 3,5 km/h (1 Bft)
17.04.2013 03:18 11,5 C 78 % 0,0 l/m 4,2 km/h (1 Bft) N 360 7,8 C 11,7 C 4,7 km/h (1 Bft)
17.04.2013 03:23 11,5 C 78 % 0,0 l/m 4,2 km/h (1 Bft) N 360 7,8 C 11,7 C 5,1 km/h (1 Bft)
17.04.2013 03:28 11,3 C 79 % 0,0 l/m 4,0 km/h (1 Bft) N 360 7,8 C 11,6 C 2,9 km/h (1 Bft)
17.04.2013 03:33 11,2 C 79 % 0,0 l/m 3,9 km/h (1 Bft) N 360 7,7 C 11,5 C 3,5 km/h (1 Bft)
17.04.2013 03:38 11,1 C 81 % 0,0 l/m 3,4 km/h (1 Bft) N-NW 337 8,0 C 11,5 C 4,2 km/h (1 Bft)
17.04.2013 03:43 10,9 C 82 % 0,0 l/m 3,2 km/h (1 Bft) NO 45 7,9 C 11,3 C 4,3 km/h (1 Bft)
17.04.2013 03:48 10,7 C 81 % 0,0 l/m 2,3 km/h (1 Bft) N-NW 337 7,6 C 11,1 C 3,5 km/h (1 Bft)
17.04.2013 03:53 10,7 C 81 % 0,0 l/m 1,8 km/h (1 Bft) W-NW 292 7,6 C 11,0 C 2,3 km/h (1 Bft)
17.04.2013 03:58 10,6 C 81 % 0,0 l/m 1,3 km/h (1 Bft) N-NO 22 7,5 C 10,8 C 3,7 km/h (1 Bft)
17.04.2013 04:03 10,5 C 82 % 0,0 l/m 1,8 km/h (1 Bft) N 360 7,6 C 10,8 C 5,8 km/h (2 Bft)
17.04.2013 04:08 10,6 C 83 % 0,0 l/m 2,1 km/h (1 Bft) W-NW 292 7,8 C 10,8 C 1,8 km/h (1 Bft)
17.04.2013 04:13 10,5 C 82 % 0,0 l/m 1,3 km/h (1 Bft) N 360 7,6 C 10,8 C 0,0 km/h (0 Bft)
17.04.2013 04:18 10,3 C 82 % 0,0 l/m 0,2 km/h (0 Bft) N 360 7,4 C 10,6 C 0,0 km/h (0 Bft)
17.04.2013 04:23 10,2 C 82 % 0,0 l/m 0,2 km/h (0 Bft) NW 315 7,3 C 10,5 C 0,0 km/h (0 Bft)
17.04.2013 04:28 10,3 C 84 % 0,0 l/m 0,0 km/h (0 Bft) S-SO 157 7,7 C 10,4 C 0,0 km/h (0 Bft)
17.04.2013 04:33 10,2 C 84 % 0,0 l/m 0,0 km/h (0 Bft) O 90 7,6 C 10,4 C 1,6 km/h (1 Bft)
17.04.2013 04:38 10,3 C 84 % 0,0 l/m 0,3 km/h (0 Bft) N-NO 22 7,7 C 10,5 C 0,0 km/h (0 Bft)
17.04.2013 04:43 10,3 C 83 % 0,0 l/m 0,5 km/h (0 Bft) N 360 7,5 C 10,6 C 0,0 km/h (0 Bft)
17.04.2013 04:48 10,2 C 83 % 0,0 l/m 0,3 km/h (0 Bft) O 90 7,4 C 10,6 C 0,0 km/h (0 Bft)
17.04.2013 04:53 10,3 C 83 % 0,0 l/m 0,5 km/h (0 Bft) W-NW 292 7,5 C 10,7 C 0,0 km/h (0 Bft)
17.04.2013 04:58 10,7 C 86 % 0,0 l/m 1,3 km/h (1 Bft) N-NO 22 8,5 C 10,9 C 2,3 km/h (1 Bft)
17.04.2013 05:03 10,6 C 85 % 0,0 l/m 1,1 km/h (1 Bft) NO 45 8,2 C 10,9 C 2,1 km/h (1 Bft)
17.04.2013 05:08 10,4 C 85 % 0,0 l/m 1,0 km/h (0 Bft) N 360 8,0 C 10,8 C 1,6 km/h (1 Bft)
17.04.2013 05:13 10,3 C 85 % 0,0 l/m 0,6 km/h (0 Bft) O 90 7,9 C 10,8 C 0,0 km/h (0 Bft)
17.04.2013 05:18 10,3 C 85 % 0,0 l/m 0,8 km/h (0 Bft) NO 45 7,9 C 10,5 C 2,9 km/h (1 Bft)
17.04.2013 05:23 10,2 C 85 % 0,0 l/m 1,3 km/h (1 Bft) N-NW 337 7,8 C 10,6 C 0,0 km/h (0 Bft)
17.04.2013 05:28 10,3 C 86 % 0,0 l/m 1,1 km/h (1 Bft) N-NW 337 8,1 C 10,5 C 0,0 km/h (0 Bft)
17.04.2013 05:33 10,2 C 85 % 0,0 l/m 0,6 km/h (0 Bft) N 360 7,8 C 10,5 C 0,0 km/h (0 Bft)
17.04.2013 05:38 10,3 C 86 % 0,0 l/m 0,5 km/h (0 Bft) S-SO 157 8,1 C 10,6 C 0,0 km/h (0 Bft)
17.04.2013 05:43 10,3 C 85 % 0,0 l/m 0,5 km/h (0 Bft) N-NW 337 7,9 C 10,6 C 0,0 km/h (0 Bft)
17.04.2013 05:48 10,2 C 85 % 0,0 l/m 0,3 km/h (0 Bft) W 270 7,8 C 10,6 C 0,0 km/h (0 Bft)
17.04.2013 05:53 10,2 C 85 % 0,0 l/m 0,2 km/h (0 Bft) N-NW 337 7,8 C 10,5 C 1,6 km/h (1 Bft)
17.04.2013 05:58 10,2 C 85 % 0,0 l/m 0,3 km/h (0 Bft) N-NW 337 7,8 C 10,5 C 0,0 km/h (0 Bft)
17.04.2013 06:03 10,2 C 86 % 0,0 l/m 0,3 km/h (0 Bft) S 180 8,0 C 10,4 C 0,0 km/h (0 Bft)
17.04.2013 06:08 10,1 C 85 % 0,0 l/m 0,2 km/h (0 Bft) W-NW 292 7,7 C 10,3 C 0,0 km/h (0 Bft)
17.04.2013 06:13 10,0 C 85 % 0,0 l/m 0,2 km/h (0 Bft) N-NW 337 7,6 C 10,3 C 0,0 km/h (0 Bft)
17.04.2013 06:18 10,0 C 85 % 0,0 l/m 0,0 km/h (0 Bft) O-SO 112 7,6 C 10,3 C 0,0 km/h (0 Bft)
17.04.2013 06:23 10,1 C 86 % 0,0 l/m 0,0 km/h (0 Bft) N-NW 337 7,9 C 10,2 C 0,0 km/h (0 Bft)
17.04.2013 06:28 10,2 C 86 % 0,0 l/m 1,3 km/h (1 Bft) O-NO 67 8,0 C 10,3 C 3,9 km/h (1 Bft)
17.04.2013 06:33 10,2 C 87 % 0,0 l/m 1,8 km/h (1 Bft) W-SW 247 8,1 C 10,3 C 0,0 km/h (0 Bft)
17.04.2013 06:38 10,0 C 86 % 0,0 l/m 1,4 km/h (1 Bft) O 90 7,8 C 10,3 C 4,5 km/h (1 Bft)
17.04.2013 06:43 10,0 C 86 % 0,0 l/m 1,3 km/h (1 Bft) N-NW 337 7,8 C 10,3 C 0,0 km/h (0 Bft)
17.04.2013 06:48 10,0 C 86 % 0,0 l/m 1,0 km/h (0 Bft) O 90 7,8 C 10,3 C 0,0 km/h (0 Bft)
17.04.2013 06:53 10,0 C 86 % 0,0 l/m 0,0 km/h (0 Bft) W-NW 292 7,8 C 10,3 C 0,0 km/h (0 Bft)
17.04.2013 06:58 10,1 C 86 % 0,0 l/m 0,8 km/h (0 Bft) W-NW 292 7,9 C 10,3 C 3,4 km/h (1 Bft)
17.04.2013 07:03 10,0 C 86 % 0,0 l/m 0,8 km/h (0 Bft) NO 45 7,8 C 10,3 C 0,0 km/h (0 Bft)
17.04.2013 07:08 10,2 C 86 % 0,0 l/m 1,1 km/h (1 Bft) W 270 8,0 C 10,4 C 2,7 km/h (1 Bft)
17.04.2013 07:13 10,4 C 87 % 0,0 l/m 1,0 km/h (0 Bft) W 270 8,3 C 10,5 C 0,0 km/h (0 Bft)
17.04.2013 07:18 10,4 C 86 % 0,0 l/m 0,5 km/h (0 Bft) N 360 8,2 C 10,6 C 4,7 km/h (1 Bft)
17.04.2013 07:23 10,5 C 86 % 0,0 l/m 0,6 km/h (0 Bft) S 180 8,3 C 10,8 C 0,0 km/h (0 Bft)
17.04.2013 07:28 10,6 C 86 % 0,0 l/m 0,6 km/h (0 Bft) N-NW 337 8,4 C 10,8 C 0,0 km/h (0 Bft)
17.04.2013 07:33 10,7 C 86 % 0,0 l/m 0,3 km/h (0 Bft) W 270 8,5 C 11,0 C 0,0 km/h (0 Bft)
17.04.2013 07:38 10,8 C 86 % 0,0 l/m 0,3 km/h (0 Bft) W 270 8,6 C 11,1 C 0,0 km/h (0 Bft)
17.04.2013 07:43 10,9 C 85 % 0,0 l/m 0,3 km/h (0 Bft) O-SO 112 8,5 C 11,2 C 1,8 km/h (1 Bft)
17.04.2013 07:48 11,1 C 85 % 0,0 l/m 0,3 km/h (0 Bft) O 90 8,7 C 11,5 C 0,0 km/h (0 Bft)
17.04.2013 07:53 11,3 C 84 % 0,0 l/m 1,1 km/h (1 Bft) S-SO 157 8,7 C 11,6 C 3,1 km/h (1 Bft)
17.04.2013 07:58 11,3 C 84 % 0,0 l/m 1,4 km/h (1 Bft) O 90 8,7 C 11,7 C 0,0 km/h (0 Bft)
17.04.2013 08:03 11,6 C 84 % 0,0 l/m 1,1 km/h (1 Bft) NO 45 9,0 C 11,8 C 0,0 km/h (0 Bft)
17.04.2013 08:08 11,9 C 83 % 0,0 l/m 0,3 km/h (0 Bft) S 180 9,1 C 12,1 C 0,0 km/h (0 Bft)
17.04.2013 08:13 12,0 C 82 % 0,0 l/m 0,2 km/h (0 Bft) S 180 9,0 C 12,4 C 0,0 km/h (0 Bft)
17.04.2013 08:18 12,2 C 82 % 0,0 l/m 0,8 km/h (0 Bft) S-SO 157 9,2 C 12,7 C 2,9 km/h (1 Bft)
17.04.2013 08:23 12,5 C 81 % 0,0 l/m 1,0 km/h (0 Bft) O 90 9,3 C 12,9 C 1,8 km/h (1 Bft)
17.04.2013 08:28 12,8 C 80 % 0,0 l/m 0,6 km/h (0 Bft) W 270 9,4 C 13,2 C 0,0 km/h (0 Bft)
17.04.2013 08:33 12,8 C 79 % 0,0 l/m 0,5 km/h (0 Bft) SO 135 9,2 C 13,4 C 0,0 km/h (0 Bft)
17.04.2013 08:38 12,9 C 79 % 0,0 l/m 0,3 km/h (0 Bft) S-SW 202 9,3 C 13,6 C 0,0 km/h (0 Bft)
17.04.2013 08:43 13,1 C 78 % 0,0 l/m 0,0 km/h (0 Bft) SO 135 9,4 C 13,9 C 0,0 km/h (0 Bft)
17.04.2013 08:48 13,6 C 77 % 0,0 l/m 0,0 km/h (0 Bft) SO 135 9,6 C 14,5 C 0,0 km/h (0 Bft)
17.04.2013 08:53 13,8 C 76 % 0,0 l/m 0,3 km/h (0 Bft) S-SO 157 9,6 C 14,9 C 1,6 km/h (1 Bft)
17.04.2013 08:58 14,4 C 75 % 0,0 l/m 0,5 km/h (0 Bft) S 180 10,0 C 15,4 C 0,0 km/h (0 Bft)
17.04.2013 09:03 15,0 C 74 % 0,0 l/m 0,2 km/h (0 Bft) S 180 10,4 C 15,8 C 0,0 km/h (0 Bft)
17.04.2013 09:08 15,2 C 72 % 0,0 l/m 0,6 km/h (0 Bft) S-SO 157 10,2 C 16,4 C 2,1 km/h (1 Bft)
17.04.2013 09:13 15,5 C 71 % 0,0 l/m 1,0 km/h (0 Bft) S 180 10,3 C 16,7 C 0,0 km/h (0 Bft)
17.04.2013 09:18 16,9 C 70 % 0,0 l/m 0,3 km/h (0 Bft) N-NW 337 11,4 C 17,6 C 1,6 km/h (1 Bft)
17.04.2013 09:23 16,8 C 67 % 0,0 l/m 0,2 km/h (0 Bft) N-NO 22 10,6 C 18,2 C 0,0 km/h (0 Bft)
17.04.2013 09:28 18,1 C 65 % 0,0 l/m 0,6 km/h (0 Bft) S 180 11,4 C 19,2 C 0,0 km/h (0 Bft)
17.04.2013 09:33 18,2 C 61 % 0,0 l/m 0,8 km/h (0 Bft) S-SO 157 10,6 C 20,0 C 2,6 km/h (1 Bft)
17.04.2013 09:38 21,3 C 58 % 0,0 l/m 0,6 km/h (0 Bft) O 90 12,7 C 23,2 C 1,8 km/h (1 Bft)
17.04.2013 09:43 20,0 C 55 % 0,0 l/m 1,0 km/h (0 Bft) SO 135 10,7 C 23,9 C 3,7 km/h (1 Bft)
17.04.2013 09:48 18,9 C 55 % 0,0 l/m 2,3 km/h (1 Bft) W-SW 247 9,7 C 22,5 C 2,1 km/h (1 Bft)
17.04.2013 09:53 18,2 C 55 % 0,0 l/m 2,6 km/h (1 Bft) SO 135 9,0 C 21,6 C 4,3 km/h (1 Bft)
17.04.2013 09:58 18,5 C 56 % 0,0 l/m 2,7 km/h (1 Bft) S 180 9,6 C 20,9 C 2,6 km/h (1 Bft)
17.04.2013 10:03 19,1 C 55 % 0,0 l/m 2,9 km/h (1 Bft) S 180 9,8 C 21,1 C 2,7 km/h (1 Bft)
17.04.2013 10:08 19,6 C 52 % 0,0 l/m 2,3 km/h (1 Bft) W 270 9,5 C 22,1 C 0,0 km/h (0 Bft)
17.04.2013 10:13 19,5 C 49 % 0,0 l/m 3,2 km/h (1 Bft) N 360 8,5 C 22,3 C 7,2 km/h (2 Bft)
17.04.2013 10:18 19,0 C 47 % 0,0 l/m 4,0 km/h (1 Bft) W-SW 247 7,4 C 22,1 C 8,7 km/h (2 Bft)
17.04.2013 10:23 18,8 C 49 % 0,0 l/m 4,3 km/h (1 Bft) W-SW 247 7,9 C 21,6 C 3,9 km/h (1 Bft)
17.04.2013 10:28 19,2 C 50 % 0,0 l/m 4,3 km/h (1 Bft) S 180 8,5 C 21,8 C 7,9 km/h (2 Bft)
17.04.2013 10:33 19,6 C 48 % 0,0 l/m 3,4 km/h (1 Bft) O 90 8,3 C 22,3 C 0,0 km/h (0 Bft)
17.04.2013 10:38 20,2 C 46 % 0,0 l/m 3,1 km/h (1 Bft) S-SW 202 8,2 C 23,3 C 6,4 km/h (2 Bft)
17.04.2013 10:43 19,7 C 46 % 0,0 l/m 3,7 km/h (1 Bft) S-SW 202 7,8 C 22,9 C 6,8 km/h (2 Bft)
17.04.2013 10:48 19,9 C 46 % 0,0 l/m 4,2 km/h (1 Bft) SO 135 7,9 C 23,2 C 4,3 km/h (1 Bft)
17.04.2013 10:53 20,5 C 46 % 0,0 l/m 3,4 km/h (1 Bft) S 180 8,5 C 23,5 C 2,4 km/h (1 Bft)
17.04.2013 10:58 20,8 C 45 % 0,0 l/m 3,5 km/h (1 Bft) S-SO 157 8,4 C 23,6 C 7,7 km/h (2 Bft)
17.04.2013 11:03 20,8 C 45 % 0,0 l/m 3,2 km/h (1 Bft) SO 135 8,4 C 23,5 C 3,7 km/h (1 Bft)
17.04.2013 11:08 20,3 C 43 % 0,0 l/m 2,3 km/h (1 Bft) O-SO 112 7,3 C 24,5 C 0,0 km/h (0 Bft)
17.04.2013 11:13 21,1 C 44 % 0,0 l/m 2,4 km/h (1 Bft) O-SO 112 8,4 C 24,7 C 3,1 km/h (1 Bft)
17.04.2013 11:18 21,8 C 44 % 0,0 l/m 3,4 km/h (1 Bft) S-SO 157 9,0 C 24,7 C 7,1 km/h (2 Bft)
17.04.2013 11:23 21,3 C 43 % 0,0 l/m 2,9 km/h (1 Bft) SO 135 8,2 C 24,6 C 3,1 km/h (1 Bft)
17.04.2013 11:28 22,1 C 40 % 0,0 l/m 2,6 km/h (1 Bft) NO 45 7,9 C 25,3 C 3,2 km/h (1 Bft)
17.04.2013 11:33 22,2 C 42 % 0,0 l/m 1,6 km/h (1 Bft) O-SO 112 8,7 C 25,7 C 0,0 km/h (0 Bft)
17.04.2013 11:38 22,2 C 42 % 0,0 l/m 1,4 km/h (1 Bft) N 360 8,7 C 26,1 C 3,5 km/h (1 Bft)
17.04.2013 11:43 21,9 C 39 % 0,0 l/m 1,6 km/h (1 Bft) O-SO 112 7,3 C 25,7 C 1,8 km/h (1 Bft)
17.04.2013 11:48 21,2 C 43 % 0,0 l/m 3,1 km/h (1 Bft) N-NW 337 8,1 C 24,7 C 2,3 km/h (1 Bft)
17.04.2013 11:53 21,0 C 42 % 0,0 l/m 3,1 km/h (1 Bft) W 270 7,6 C 24,4 C 3,4 km/h (1 Bft)
17.04.2013 11:58 22,5 C 41 % 0,0 l/m 2,4 km/h (1 Bft) O-SO 112 8,6 C 25,2 C 5,0 km/h (1 Bft)
17.04.2013 12:03 22,5 C 41 % 0,0 l/m 3,2 km/h (1 Bft) O-SO 112 8,6 C 25,3 C 7,2 km/h (2 Bft)
17.04.2013 12:08 22,6 C 42 % 0,0 l/m 5,0 km/h (1 Bft) O 90 9,0 C 24,5 C 3,4 km/h (1 Bft)
17.04.2013 12:13 21,5 C 40 % 0,0 l/m 4,3 km/h (1 Bft) W 270 7,3 C 24,5 C 3,2 km/h (1 Bft)
17.04.2013 12:18 22,0 C 41 % 0,0 l/m 3,1 km/h (1 Bft) NO 45 8,1 C 24,9 C 4,7 km/h (1 Bft)
17.04.2013 12:23 21,3 C 41 % 0,0 l/m 2,7 km/h (1 Bft) S 180 7,5 C 24,9 C 0,0 km/h (0 Bft)
17.04.2013 12:28 22,1 C 41 % 0,0 l/m 3,2 km/h (1 Bft) O-SO 112 8,2 C 25,0 C 5,8 km/h (2 Bft)
17.04.2013 12:33 21,6 C 43 % 0,0 l/m 3,9 km/h (1 Bft) SO 135 8,5 C 24,6 C 6,1 km/h (2 Bft)
17.04.2013 12:38 22,1 C 41 % 0,0 l/m 3,9 km/h (1 Bft) NO 45 8,2 C 24,8 C 3,5 km/h (1 Bft)
17.04.2013 12:43 22,0 C 40 % 0,0 l/m 3,9 km/h (1 Bft) O-SO 112 7,8 C 24,9 C 3,9 km/h (1 Bft)
17.04.2013 12:48 22,0 C 41 % 0,0 l/m 4,3 km/h (1 Bft) O-SO 112 8,1 C 24,7 C 3,5 km/h (1 Bft)
17.04.2013 12:53 22,3 C 41 % 0,0 l/m 3,2 km/h (1 Bft) SO 135 8,4 C 25,3 C 4,3 km/h (1 Bft)
17.04.2013 12:58 21,6 C 39 % 0,0 l/m 1,9 km/h (1 Bft) W-SW 247 7,0 C 26,0 C 2,4 km/h (1 Bft)
17.04.2013 13:03 22,3 C 41 % 0,0 l/m 2,3 km/h (1 Bft) W-SW 247 8,4 C 26,7 C 4,7 km/h (1 Bft)
17.04.2013 13:08 22,3 C 39 % 0,0 l/m 2,4 km/h (1 Bft) O-NO 67 7,7 C 26,9 C 5,1 km/h (1 Bft)
17.04.2013 13:13 22,9 C 41 % 0,0 l/m 3,2 km/h (1 Bft) S 180 8,9 C 26,9 C 6,4 km/h (2 Bft)
17.04.2013 13:18 22,3 C 38 % 0,0 l/m 3,9 km/h (1 Bft) N 360 7,3 C 26,5 C 3,1 km/h (1 Bft)
17.04.2013 13:23 22,6 C 39 % 0,0 l/m 2,9 km/h (1 Bft) O-SO 112 7,9 C 26,7 C 3,9 km/h (1 Bft)
17.04.2013 13:28 22,7 C 39 % 0,0 l/m 2,1 km/h (1 Bft) SO 135 8,0 C 26,8 C 5,8 km/h (2 Bft)
17.04.2013 13:33 21,9 C 39 % 0,0 l/m 2,9 km/h (1 Bft) S-SO 157 7,3 C 26,1 C 2,3 km/h (1 Bft)
17.04.2013 13:38 22,4 C 39 % 0,0 l/m 2,9 km/h (1 Bft) S 180 7,8 C 25,7 C 3,5 km/h (1 Bft)
17.04.2013 13:43 21,7 C 38 % 0,0 l/m 2,6 km/h (1 Bft) N-NW 337 6,8 C 25,6 C 3,4 km/h (1 Bft)
17.04.2013 13:48 22,8 C 39 % 0,0 l/m 2,9 km/h (1 Bft) S-SO 157 8,1 C 26,0 C 8,0 km/h (2 Bft)
17.04.2013 13:53 22,1 C 38 % 0,0 l/m 3,2 km/h (1 Bft) W-NW 292 7,1 C 25,4 C 1,8 km/h (1 Bft)
17.04.2013 13:58 21,5 C 39 % 0,0 l/m 3,5 km/h (1 Bft) S 180 7,0 C 24,8 C 2,1 km/h (1 Bft)
17.04.2013 14:03 21,5 C 39 % 0,0 l/m 2,3 km/h (1 Bft) N-NW 337 7,0 C 24,5 C 4,2 km/h (1 Bft)
17.04.2013 14:08 21,6 C 40 % 0,0 l/m 2,9 km/h (1 Bft) W-NW 292 7,4 C 24,1 C 4,0 km/h (1 Bft)
17.04.2013 14:13 21,3 C 39 % 0,0 l/m 4,5 km/h (1 Bft) S-SO 157 6,8 C 23,9 C 9,0 km/h (2 Bft)
17.04.2013 14:18 21,7 C 40 % 0,0 l/m 4,8 km/h (1 Bft) S 180 7,5 C 24,1 C 10,6 km/h (2 Bft)
17.04.2013 14:23 21,6 C 44 % 0,0 l/m 4,8 km/h (1 Bft) S 180 8,8 C 24,1 C 6,0 km/h (2 Bft)
17.04.2013 14:28 21,3 C 44 % 0,0 l/m 5,1 km/h (1 Bft) SO 135 8,5 C 24,1 C 2,1 km/h (1 Bft)
17.04.2013 14:33 21,6 C 44 % 0,0 l/m 5,8 km/h (2 Bft) S-SW 202 8,8 C 24,5 C 13,4 km/h (3 Bft)
17.04.2013 14:38 22,1 C 43 % 0,0 l/m 6,3 km/h (2 Bft) S 180 8,9 C 24,3 C 12,1 km/h (2 Bft)
17.04.2013 14:43 22,2 C 43 % 0,0 l/m 6,8 km/h (2 Bft) S-SO 157 9,0 C 24,1 C 6,3 km/h (2 Bft)
17.04.2013 14:48 22,1 C 43 % 0,0 l/m 5,6 km/h (1 Bft) S 180 8,9 C 24,5 C 7,1 km/h (2 Bft)
17.04.2013 14:53 21,2 C 43 % 0,0 l/m 5,3 km/h (1 Bft) W-SW 247 8,1 C 23,9 C 4,2 km/h (1 Bft)
17.04.2013 14:58 21,2 C 45 % 0,0 l/m 4,5 km/h (1 Bft) S-SO 157 8,8 C 23,0 C 4,3 km/h (1 Bft)
17.04.2013 15:03 21,8 C 41 % 0,0 l/m 3,7 km/h (1 Bft) S 180 8,0 C 23,5 C 7,6 km/h (2 Bft)
17.04.2013 15:08 20,5 C 43 % 0,0 l/m 3,5 km/h (1 Bft) O-SO 112 7,5 C 23,2 C 0,0 km/h (0 Bft)
17.04.2013 15:13 21,0 C 44 % 0,0 l/m 2,4 km/h (1 Bft) O-NO 67 8,3 C 23,0 C 0,0 km/h (0 Bft)
17.04.2013 15:18 21,6 C 41 % 0,0 l/m 1,1 km/h (1 Bft) W-SW 247 7,8 C 23,8 C 5,8 km/h (2 Bft)
17.04.2013 15:23 21,6 C 41 % 0,0 l/m 2,3 km/h (1 Bft) SW 225 7,8 C 24,4 C 4,8 km/h (1 Bft)
17.04.2013 15:28 22,7 C 41 % 0,0 l/m 2,7 km/h (1 Bft) NO 45 8,8 C 25,4 C 0,0 km/h (0 Bft)
17.04.2013 15:33 22,7 C 39 % 0,0 l/m 2,9 km/h (1 Bft) SO 135 8,0 C 26,1 C 3,1 km/h (1 Bft)
17.04.2013 15:38 21,8 C 41 % 0,0 l/m 3,7 km/h (1 Bft) NW 315 8,0 C 26,0 C 3,7 km/h (1 Bft)
17.04.2013 15:43 21,7 C 41 % 0,0 l/m 4,2 km/h (1 Bft) SO 135 7,9 C 25,7 C 5,0 km/h (1 Bft)
17.04.2013 15:48 22,3 C 41 % 0,0 l/m 3,2 km/h (1 Bft) N 360 8,4 C 25,6 C 1,6 km/h (1 Bft)
17.04.2013 15:53 22,4 C 42 % 0,0 l/m 1,8 km/h (1 Bft) O-NO 67 8,9 C 26,0 C 2,4 km/h (1 Bft)
17.04.2013 15:58 22,7 C 41 % 0,0 l/m 2,1 km/h (1 Bft) W 270 8,8 C 26,3 C 8,2 km/h (2 Bft)
17.04.2013 16:03 22,0 C 41 % 0,0 l/m 3,5 km/h (1 Bft) W-NW 292 8,1 C 25,6 C 6,6 km/h (2 Bft)
17.04.2013 16:08 22,1 C 42 % 0,0 l/m 3,4 km/h (1 Bft) O 90 8,6 C 25,4 C 2,3 km/h (1 Bft)
17.04.2013 16:13 22,7 C 42 % 0,0 l/m 2,3 km/h (1 Bft) O-SO 112 9,1 C 25,9 C 6,1 km/h (2 Bft)
17.04.2013 16:18 22,6 C 41 % 0,0 l/m 3,2 km/h (1 Bft) SO 135 8,7 C 25,2 C 0,0 km/h (0 Bft)
17.04.2013 16:23 22,4 C 41 % 0,0 l/m 3,2 km/h (1 Bft) SO 135 8,5 C 25,1 C 0,0 km/h (0 Bft)
17.04.2013 16:28 21,7 C 42 % 0,0 l/m 3,2 km/h (1 Bft) W-SW 247 8,2 C 24,7 C 10,1 km/h (2 Bft)
17.04.2013 16:33 21,7 C 42 % 0,0 l/m 3,9 km/h (1 Bft) W 270 8,2 C 24,2 C 5,5 km/h (1 Bft)
17.04.2013 16:38 20,8 C 44 % 0,0 l/m 4,2 km/h (1 Bft) W-NW 292 8,1 C 23,1 C 4,8 km/h (1 Bft)
17.04.2013 16:43 21,1 C 45 % 0,0 l/m 3,7 km/h (1 Bft) W-NW 292 8,7 C 22,7 C 2,6 km/h (1 Bft)
17.04.2013 16:48 20,7 C 46 % 0,0 l/m 3,2 km/h (1 Bft) SW 225 8,7 C 22,5 C 3,1 km/h (1 Bft)
17.04.2013 16:53 21,0 C 46 % 0,0 l/m 2,4 km/h (1 Bft) W-SW 247 8,9 C 22,5 C 2,3 km/h (1 Bft)
17.04.2013 16:58 20,8 C 46 % 0,0 l/m 3,5 km/h (1 Bft) S 180 8,8 C 22,4 C 7,6 km/h (2 Bft)
17.04.2013 17:03 20,4 C 45 % 0,0 l/m 4,3 km/h (1 Bft) W 270 8,1 C 22,3 C 2,7 km/h (1 Bft)
17.04.2013 17:08 20,8 C 46 % 0,0 l/m 3,7 km/h (1 Bft) W-SW 247 8,8 C 22,5 C 7,6 km/h (2 Bft)
17.04.2013 17:13 20,8 C 45 % 0,0 l/m 3,5 km/h (1 Bft) SW 225 8,4 C 22,7 C 3,9 km/h (1 Bft)
17.04.2013 17:18 21,0 C 45 % 0,0 l/m 2,7 km/h (1 Bft) W-SW 247 8,6 C 23,3 C 3,1 km/h (1 Bft)
17.04.2013 17:23 20,7 C 47 % 0,0 l/m 2,3 km/h (1 Bft) S 180 9,0 C 23,4 C 3,9 km/h (1 Bft)
17.04.2013 17:28 20,7 C 46 % 0,0 l/m 3,7 km/h (1 Bft) O-SO 112 8,7 C 23,5 C 1,8 km/h (1 Bft)
17.04.2013 17:33 20,8 C 47 % 0,0 l/m 3,4 km/h (1 Bft) SO 135 9,1 C 23,8 C 2,6 km/h (1 Bft)
17.04.2013 17:38 20,5 C 47 % 0,0 l/m 2,3 km/h (1 Bft) S-SW 202 8,8 C 24,1 C 6,0 km/h (2 Bft)
17.04.2013 17:43 20,2 C 49 % 0,0 l/m 3,4 km/h (1 Bft) O-SO 112 9,1 C 23,8 C 3,1 km/h (1 Bft)
17.04.2013 17:48 20,4 C 47 % 0,0 l/m 5,1 km/h (1 Bft) S-SO 157 8,7 C 23,8 C 6,1 km/h (2 Bft)
17.04.2013 17:53 20,3 C 47 % 0,0 l/m 5,1 km/h (1 Bft) S 180 8,6 C 23,5 C 9,8 km/h (2 Bft)
17.04.2013 17:58 20,0 C 48 % 0,0 l/m 4,8 km/h (1 Bft) S-SW 202 8,7 C 22,4 C 2,9 km/h (1 Bft)
17.04.2013 18:03 19,9 C 50 % 0,0 l/m 4,2 km/h (1 Bft) SW 225 9,2 C 22,3 C 6,4 km/h (2 Bft)
17.04.2013 18:08 19,6 C 52 % 0,0 l/m 3,7 km/h (1 Bft) W-SW 247 9,5 C 21,9 C 5,1 km/h (1 Bft)
17.04.2013 18:13 19,5 C 50 % 0,0 l/m 4,7 km/h (1 Bft) W 270 8,8 C 21,7 C 5,8 km/h (2 Bft)
17.04.2013 18:18 19,4 C 50 % 0,0 l/m 4,3 km/h (1 Bft) S 180 8,7 C 21,5 C 4,7 km/h (1 Bft)
17.04.2013 18:23 19,4 C 50 % 0,0 l/m 3,7 km/h (1 Bft) S-SO 157 8,7 C 21,5 C 2,6 km/h (1 Bft)
17.04.2013 18:28 19,4 C 52 % 0,0 l/m 3,5 km/h (1 Bft) O 90 9,3 C 21,8 C 3,5 km/h (1 Bft)
17.04.2013 18:33 19,4 C 53 % 0,0 l/m 4,0 km/h (1 Bft) W 270 9,6 C 22,1 C 8,0 km/h (2 Bft)
17.04.2013 18:38 19,2 C 51 % 0,0 l/m 5,0 km/h (1 Bft) N-NW 337 8,8 C 22,2 C 6,3 km/h (2 Bft)
17.04.2013 18:43 19,1 C 51 % 0,0 l/m 5,8 km/h (2 Bft) S 180 8,7 C 22,1 C 5,5 km/h (1 Bft)
17.04.2013 18:48 18,8 C 52 % 0,0 l/m 5,6 km/h (1 Bft) S 180 8,7 C 21,7 C 6,9 km/h (2 Bft)
17.04.2013 18:53 18,8 C 51 % 0,0 l/m 5,6 km/h (1 Bft) SW 225 8,4 C 21,5 C 5,5 km/h (1 Bft)
17.04.2013 18:58 18,6 C 52 % 0,0 l/m 5,5 km/h (1 Bft) W-SW 247 8,5 C 21,2 C 6,0 km/h (2 Bft)
17.04.2013 19:03 18,3 C 54 % 0,0 l/m 4,8 km/h (1 Bft) S 180 8,8 C 21,2 C 1,9 km/h (1 Bft)
17.04.2013 19:08 17,8 C 57 % 0,0 l/m 3,1 km/h (1 Bft) W 270 9,2 C 21,0 C 8,4 km/h (2 Bft)
17.04.2013 19:13 17,7 C 56 % 0,0 l/m 2,6 km/h (1 Bft) W-SW 247 8,8 C 20,8 C 3,1 km/h (1 Bft)
17.04.2013 19:18 17,3 C 57 % 0,0 l/m 2,3 km/h (1 Bft) W-SW 247 8,7 C 20,1 C 1,9 km/h (1 Bft)
17.04.2013 19:23 17,1 C 57 % 0,0 l/m 1,3 km/h (1 Bft) N 360 8,5 C 19,4 C 0,0 km/h (0 Bft)
17.04.2013 19:28 16,8 C 57 % 0,0 l/m 1,3 km/h (1 Bft) N-NW 337 8,2 C 18,6 C 2,1 km/h (1 Bft)
17.04.2013 19:33 16,6 C 58 % 0,0 l/m 1,6 km/h (1 Bft) W-NW 292 8,3 C 18,1 C 2,1 km/h (1 Bft)
17.04.2013 19:38 16,3 C 59 % 0,0 l/m 2,3 km/h (1 Bft) S 180 8,3 C 17,5 C 2,9 km/h (1 Bft)
17.04.2013 19:43 16,0 C 59 % 0,0 l/m 2,4 km/h (1 Bft) W-NW 292 8,0 C 17,1 C 2,4 km/h (1 Bft)
17.04.2013 19:48 15,7 C 61 % 0,0 l/m 2,6 km/h (1 Bft) NW 315 8,2 C 16,6 C 2,4 km/h (1 Bft)
17.04.2013 19:53 15,5 C 62 % 0,0 l/m 2,3 km/h (1 Bft) NW 315 8,3 C 16,3 C 2,7 km/h (1 Bft)
17.04.2013 19:58 15,3 C 63 % 0,0 l/m 2,4 km/h (1 Bft) NW 315 8,3 C 15,8 C 3,1 km/h (1 Bft)
17.04.2013 20:03 15,1 C 63 % 0,0 l/m 2,6 km/h (1 Bft) N-NW 337 8,1 C 15,6 C 2,9 km/h (1 Bft)
17.04.2013 20:08 14,9 C 64 % 0,0 l/m 2,7 km/h (1 Bft) N-NW 337 8,2 C 15,1 C 1,9 km/h (1 Bft)
17.04.2013 20:13 14,8 C 64 % 0,0 l/m 2,6 km/h (1 Bft) N-NW 337 8,1 C 14,8 C 2,6 km/h (1 Bft)
17.04.2013 20:18 14,6 C 64 % 0,0 l/m 2,6 km/h (1 Bft) N-NW 337 7,9 C 14,5 C 2,7 km/h (1 Bft)
17.04.2013 20:23 14,4 C 65 % 0,0 l/m 2,1 km/h (1 Bft) N-NW 337 7,9 C 14,2 C 0,0 km/h (0 Bft)
17.04.2013 20:28 13,7 C 67 % 0,0 l/m 0,8 km/h (0 Bft) W-NW 292 7,7 C 13,6 C 1,9 km/h (1 Bft)
17.04.2013 20:33 13,6 C 68 % 0,0 l/m 0,3 km/h (0 Bft) NW 315 7,8 C 13,2 C 0,0 km/h (0 Bft)
17.04.2013 20:38 13,4 C 69 % 0,0 l/m 0,8 km/h (0 Bft) N 360 7,8 C 12,6 C 2,3 km/h (1 Bft)
17.04.2013 20:43 13,3 C 69 % 0,0 l/m 0,8 km/h (0 Bft) W-NW 292 7,7 C 12,4 C 0,0 km/h (0 Bft)
17.04.2013 20:48 12,8 C 72 % 0,0 l/m 0,5 km/h (0 Bft) N 360 7,9 C 12,0 C 2,1 km/h (1 Bft)
17.04.2013 20:53 12,2 C 72 % 0,0 l/m 0,2 km/h (0 Bft) N 360 7,3 C 11,7 C 0,0 km/h (0 Bft)
17.04.2013 20:58 12,0 C 73 % 0,0 l/m 0,2 km/h (0 Bft) N-NW 337 7,3 C 11,3 C 0,0 km/h (0 Bft)
17.04.2013 21:03 12,2 C 73 % 0,0 l/m 0,2 km/h (0 Bft) N-NW 337 7,5 C 11,3 C 0,0 km/h (0 Bft)
17.04.2013 21:08 12,0 C 74 % 0,0 l/m 0,6 km/h (0 Bft) N-NW 337 7,5 C 11,2 C 1,6 km/h (1 Bft)
17.04.2013 21:13 11,7 C 74 % 0,0 l/m 0,5 km/h (0 Bft) W 270 7,2 C 11,1 C 0,0 km/h (0 Bft)
17.04.2013 21:18 11,5 C 75 % 0,0 l/m 0,3 km/h (0 Bft) N-NW 337 7,2 C 10,8 C 0,0 km/h (0 Bft)
17.04.2013 21:23 11,4 C 75 % 0,0 l/m 0,0 km/h (0 Bft) N 360 7,1 C 10,7 C 0,0 km/h (0 Bft)
17.04.2013 21:28 11,0 C 75 % 0,0 l/m 0,0 km/h (0 Bft) N-NW 337 6,7 C 10,4 C 0,0 km/h (0 Bft)
17.04.2013 21:33 11,2 C 76 % 0,0 l/m 0,0 km/h (0 Bft) N-NO 22 7,1 C 10,3 C 0,0 km/h (0 Bft)
17.04.2013 21:38 10,9 C 76 % 0,0 l/m 0,2 km/h (0 Bft) N-NW 337 6,8 C 10,3 C 0,0 km/h (0 Bft)
17.04.2013 21:43 10,8 C 76 % 0,0 l/m 0,2 km/h (0 Bft) N-NW 337 6,7 C 10,3 C 0,0 km/h (0 Bft)
17.04.2013 21:48 10,5 C 77 % 0,0 l/m 0,0 km/h (0 Bft) W-SW 247 6,6 C 10,2 C 0,0 km/h (0 Bft)
17.04.2013 21:53 10,2 C 77 % 0,0 l/m 0,0 km/h (0 Bft) W-SW 247 6,4 C 10,1 C 0,0 km/h (0 Bft)
17.04.2013 21:58 10,0 C 77 % 0,0 l/m 0,0 km/h (0 Bft) W 270 6,2 C 9,9 C 0,0 km/h (0 Bft)
17.04.2013 22:03 9,8 C 78 % 0,0 l/m 0,0 km/h (0 Bft) N-NO 22 6,1 C 9,6 C 0,0 km/h (0 Bft)
17.04.2013 22:08 9,8 C 79 % 0,0 l/m 0,0 km/h (0 Bft) S 180 6,3 C 9,4 C 0,0 km/h (0 Bft)
17.04.2013 22:13 9,6 C 79 % 0,0 l/m 0,0 km/h (0 Bft) S 180 6,1 C 9,3 C 0,0 km/h (0 Bft)
17.04.2013 22:18 9,6 C 79 % 0,0 l/m 0,0 km/h (0 Bft) O-NO 67 6,1 C 9,1 C 0,0 km/h (0 Bft)
17.04.2013 22:23 9,4 C 79 % 0,0 l/m 0,0 km/h (0 Bft) S-SO 157 5,9 C 9,0 C 0,0 km/h (0 Bft)
17.04.2013 22:28 9,6 C 81 % 0,0 l/m 0,0 km/h (0 Bft) N-NW 337 6,5 C 9,0 C 0,0 km/h (0 Bft)
17.04.2013 22:33 9,7 C 81 % 0,0 l/m 0,0 km/h (0 Bft) SO 135 6,6 C 8,9 C 0,0 km/h (0 Bft)
17.04.2013 22:38 9,2 C 80 % 0,0 l/m 0,0 km/h (0 Bft) W-SW 247 5,9 C 8,7 C 0,0 km/h (0 Bft)
17.04.2013 22:43 8,9 C 80 % 0,0 l/m 0,0 km/h (0 Bft) SO 135 5,6 C 8,6 C 0,0 km/h (0 Bft)
17.04.2013 22:48 8,8 C 81 % 0,0 l/m 0,0 km/h (0 Bft) SO 135 5,7 C 8,4 C 0,0 km/h (0 Bft)
17.04.2013 22:53 8,8 C 82 % 0,0 l/m 0,0 km/h (0 Bft) W 270 5,9 C 8,3 C 0,0 km/h (0 Bft)
17.04.2013 22:58 8,5 C 82 % 0,0 l/m 0,0 km/h (0 Bft) S-SO 157 5,6 C 8,0 C 0,0 km/h (0 Bft)
17.04.2013 23:03 8,4 C 83 % 0,0 l/m 0,0 km/h (0 Bft) W-NW 292 5,7 C 8,0 C 0,0 km/h (0 Bft)
17.04.2013 23:08 8,6 C 83 % 0,0 l/m 0,0 km/h (0 Bft) W 270 5,9 C 7,9 C 0,0 km/h (0 Bft)
17.04.2013 23:13 8,5 C 83 % 0,0 l/m 0,0 km/h (0 Bft) SO 135 5,8 C 8,0 C 0,0 km/h (0 Bft)
17.04.2013 23:18 8,2 C 83 % 0,0 l/m 0,0 km/h (0 Bft) N 360 5,5 C 7,8 C 0,0 km/h (0 Bft)
17.04.2013 23:23 8,3 C 84 % 0,0 l/m 0,0 km/h (0 Bft) W-NW 292 5,8 C 7,7 C 0,0 km/h (0 Bft)
17.04.2013 23:28 7,9 C 84 % 0,0 l/m 0,0 km/h (0 Bft) W-SW 247 5,4 C 7,7 C 0,0 km/h (0 Bft)
17.04.2013 23:33 7,8 C 84 % 0,0 l/m 0,0 km/h (0 Bft) W-SW 247 5,3 C 7,6 C 0,0 km/h (0 Bft)
17.04.2013 23:38 7,6 C 84 % 0,0 l/m 0,0 km/h (0 Bft) SO 135 5,1 C 7,4 C 0,0 km/h (0 Bft)
17.04.2013 23:43 7,6 C 84 % 0,0 l/m 0,0 km/h (0 Bft) S-SW 202 5,1 C 7,4 C 0,0 km/h (0 Bft)
17.04.2013 23:48 7,6 C 85 % 0,0 l/m 0,0 km/h (0 Bft) W 270 5,2 C 7,3 C 0,0 km/h (0 Bft)
17.04.2013 23:53 7,6 C 85 % 0,0 l/m 0,0 km/h (0 Bft) W-NW 292 5,2 C 7,3 C 0,0 km/h (0 Bft)
17.04.2013 23:58 7,4 C 85 % 0,0 l/m 0,0 km/h (0 Bft) W 270 5,0 C 7,3 C 0,0 km/h (0 Bft)
_ Min-Zeit 23:58 13:53 - 23:58 - - 23:58 23:58 23:58
Minimum _ 7,4 C 38 % - 0,0 km/h (0 Bft) - - 5,0 C 7,3 C 0,0 km/h (0 Bft)
_ Max-Zeit 13:13 07:13 23:58 14:43 - - 09:38 13:13 14:33
Maximum _ 22,9 C 87 % 0,0 l/m 6,8 km/h
S-SO (2 Bft)
- - 12,7 C 26,9 C 13,4 km/h
S-SW (3 Bft)
Durchschnitt _ 15,2 C 65 % #0,0 l/m 2,1 km/h (1 Bft) N-NW - 7,9 C 16,4 C 2,6 km/h (1 Bft)